Regional Weather Roundup
Issued by NWS Wakefield, VA

Home | Current Version | Previous Version | Graphics & Text | Print | Product List | Glossary On
Versions: 1 2 3 4 5 6 7 8 9 10 11 12 13 14 15 16 17 18 19 20 21 22 23 24 25 26 27 28 29 30 31 32 33 34 35 36 37 38 39 40 41 42 43 44 45 46 47 48 49 50
000
ASUS41 KAKQ 300515
RWRAKQ

REGIONAL WEATHER ROUNDUP
NATIONAL WEATHER SERVICE WAKEFIELD VA
100 AM EDT SAT APR 30 2016

Note: "fair" indicates few or no clouds below 12,000 feet with no
significant weather and/or obstructions to visibility. * = Denotes
station may not report precipitation (e.g., rain,snow,etc.),
thunder or fog.

VAZ042-051-052>054-056-300600-
NORTHERN VIRGINIA

CITY           SKY/WX    TMP DP  RH WIND       PRES   REMARKS
WASH NATIONAL  CLOUDY    53  50  89 E8        30.13S
DULLES         CLOUDY    52  49  89 E3        30.12S
FORT BELVOIR   CLOUDY    53  50  90 CALM      30.13R
QUANTICO       CLOUDY    54  50  86 E7        30.13R
FREDERICKSBRG* CLOUDY    54  54 100 CALM      30.11S
STAFFORD*      CLOUDY    52  50  93 CALM      30.16R
WARRENTON      CLOUDY    53  49  84 CALM      30.11S FOG
CULPEPER*      CLOUDY    54  53  99 CALM      30.13R FOG
MANASSAS*      CLOUDY    54  52  94 CALM      30.12S
LEESBURG*      CLOUDY    52  52 100 NE5       30.13S FOG
WINCHESTER     CLOUDY    52  50  93 CALM      30.11S FOG
FRONT ROYAL*   CLOUDY    52  50  93 CALM      30.10S
LURAY*         CLOUDY    52  52 100 CALM      30.10R FOG
$$

VAZ048-049-060>072-079>083-300600-
CENTRAL AND SOUTH CENTRAL VIRGINIA

CITY           SKY/WX    TMP DP  RH WIND       PRES   REMARKS
RICHMOND       CLOUDY    54  52  93 NE6       30.10R
CHESTERFIELD*  CLOUDY    55  43  62 NE5       30.11R
PETERSBURG*    CLOUDY    57  57 100 N7        30.11R
HANOVER        CLOUDY    54  50  86 NE3       30.12R
TAPPAHANNOCK*  CLOUDY    54  54  99 CALM      30.11S
QUINTON*       CLOUDY    53  53  99 MISG      30.10S FOG
CHARLOTTSVILLE CLOUDY    54  51  90 NE5       30.11R
GORDONSVILLE*  CLOUDY    53  53 100 CALM      30.10S FOG
ORANGE*        CLOUDY    54  54 100 CALM      30.13R FOG
LOUISA*        CLOUDY    55  55 100 CALM      30.10R FOG
BUMPASS*       CLOUDY    53  52  97 CALM      30.11S
FARMVILLE*     CLOUDY    57  57 100 NE5       30.09R FOG
CREWE*         CLOUDY    56  56 100 NE3       30.09R
FORT PICKETT*  NOT AVBL
CHASE CITY*    CLOUDY    58  57  94 CALM      30.08R
CLARKSVILLE*   CLOUDY    59  57  94 NE3       30.07R
SOUTH HILL*    CLOUDY    57  55  94 NE5       30.13R
LAWRENCEVILLE* CLOUDY    56  56  97 NE3       30.08R
EMPORIA*       CLOUDY    55  55 100 CALM      30.10R FOG
$$

VAZ088>098-300600-
SOUTHEAST VIRGINIA

CITY           SKY/WX    TMP DP  RH WIND       PRES   REMARKS
NORFOLK        CLOUDY    55  52  89 NE10      30.07R
VIRGINIA BEACH CLOUDY    57  52  83 NE10      30.06R
NORFOLK NAVAL  CLOUDY    56  54  93 NE10      30.09R FOG
WEST POINT*    CLOUDY    54  52  93 CALM      30.12R
SALUDA*        CLOUDY    53  51  95 N7        30.10R
NEWPORT NEWS   CLOUDY    55  53  93 N3        30.09R
LANGLEY AFB    CLOUDY    55  54  97 NE6       30.08R
FORT EUSTIS    CLOUDY    55  55 100 NE7       30.06S
WILLIAMSBURG*  CLOUDY    55  55 100 N3        30.10R
HR EXEC AP*    CLOUDY    55  54  94 NE5       30.09S
FRANKLIN*      CLOUDY    56  54  93 CALM      30.09R
US460-WAKEFLD  CLOUDY    56  53  90 NE7       30.10R
$$

VAZ020-022-025-037-045-300600-
WEST CENTRAL AND SOUTHWEST VIRGINIA

CITY           SKY/WX    TMP DP  RH WIND       PRES   REMARKS
STAUNTON*      CLOUDY    55  55  99 CALM      30.12S FOG
WAYNESBORO*    CLOUDY    54  51  91 MISG      30.10S
HOT SPRINGS VA FAIR      55  49  81 N5        30.10S
LYNCHBURG      CLOUDY    54  54 100 N8        30.10R
DANVILLE       CLOUDY    60 N/A N/A NE10      30.06S
SOUTH BOSTON*  CLOUDY    59  58  95 NE5       30.08R
MARTINSVILLE   MOCLDY    59  56  89 E3        30.08S
ROANOKE        CLOUDY    59  56  89 S8        30.10R
BLACKSBURG     FAIR      58  57  96 SE6       30.10R
DUBLIN*        FAIR      63  50  63 CALM      30.08R
MARION*        FAIR      64  47  54 SW5       30.11R
HILLSVILLE*    FAIR      64  48  56 CALM      30.07F
RICHLANDS*     FAIR      62  32  32 CALM      30.08F
WISE*          FAIR      59  43  55 CALM      30.11F
ABINGDON*      FAIR      62  52  69 CALM      30.07S
$$

MDZ021>025-VAZ099-100-300600-
SOUTHERN MARYLAND AND THE DELMARVA PENINSULA

CITY           SKY/WX    TMP DP  RH WIND       PRES   REMARKS
PATUXENT RIVER CLOUDY    51  48  89 NE7       30.11R
BAY BRIDGE APT NOT AVBL
LEONARDTOWN    CLOUDY    50  48  93 CALM      30.13R
DOVER          CLOUDY    48  48 100 N10       30.13R
GEORGETOWN     CLOUDY    49  47  93 NE7       30.12R
EASTON         CLOUDY   N/A N/A N/A NE8       30.16R
CAMBRIDGE      CLOUDY    50  48  93 CALM      30.11S
SALISBURY      CLOUDY    50  48  93 N12       30.10R
OCEAN CITY     CLOUDY    50  48  93 NE10      30.10R
WALLOPS ISLAND CLOUDY    51  49  92 N7        30.10R
ACCOMACK*      CLOUDY    50  41  71 N5        30.09R HAZE
$$

NCZ012>017-030>032-300600-
NORTH CENTRAL AND EASTERN NORTH CAROLINA

CITY           SKY/WX    TMP DP  RH WIND       PRES   REMARKS
ROANOKE RAPIDS CLOUDY    59  55  88 NE7       30.06R
RALEIGH        CLOUDY    62  58  86 NE5       30.04R
ELIZABETH CITY CLOUDY    55  53  93 N13       30.06R
AHOSKIE*       CLOUDY    57  55  90 N7        30.08R
EDENTON*       CLOUDY    58  58  98 N8        30.06R
CURRITUCK*     CLOUDY    55  54  96 N8        30.07R
KILL DEVIL HLS CLOUDY    55  54  97 NE5       30.03F FOG
MANTEO         NOT AVBL
CAPE HATTERAS  CLOUDY    58  56  93 VRB7      30.03R
TARBORO*       FAIR      58  58  97 NE6       30.06R
GOLDSBORO      CLEAR     59  59 100 CALM      30.01R
WASHINGTON     PTCLDY    57  56  97 NE5       30.04R
GREENVILLE     CLEAR     59  59 100 CALM      30.06R
NEW BERN       CLEAR     62  58  86 E5        30.02R
WILMINGTON     CLEAR     65  61  87 CALM      30.01R
$$

VAZ048-300600-
ELSEWHERE

CITY           SKY/WX    TMP DP  RH WIND       PRES   REMARKS
HARRISBURG PA  LGT RAIN  47  45  93 E5        30.14R FOG
BALTIMORE      CLOUDY    50  48  93 NE7       30.13R FOG
ANNAPOLIS      CLOUDY    51  49  92 MISG      30.12R
ANDREWS AFB    CLOUDY    50  49  95 NE5       30.11S
PHILADELPHIA   CLOUDY    48  40  73 N7        30.16R
HENDERSON NC   CLOUDY    57  57 100 NE6       30.06R
GREENSBORO     PTCLDY    66  61  84 NE9       30.02R
ROCKY MOUNT    PTCLDY    58  57  97 CALM      30.06R
$$

VAZ100-300600-
MARINE

STATION/POSITION TIME  TEMP    WIND        PRES    WAVE   SWELL
                       AIR SEA DIR/SP/G            HT/PER HT/PER
                 (UTC) (F)     (DEG/KT/KT) (MB)    (FT/S) (FT/S)
BRANDYWINE LGT   0400   49      40/ 14/ 16 1019.5
CAPE MAY NJ      0400   49 57   40/  4/  7 1019.2
LEWES DE         0400   50 54   40/ 12/ 14 1019.5
15NM E FENWICK I 0450   50 51              1018.5R   6/ 8
OCEAN-CITY-INLET 0400   50 54   30/  8/ 15 1018.3
WACHAPREAGUE VA  0400   52 58  360/  6/  9 1018.0
THOMAS POINT MD  0500   51 57   60/  8/  9 1021.4R
GOOSES REEF MD   0500   53 57   60/  8/ 10 1020.8R   1/ 2
COVE POINT MD    0400   51      80/  6/  8 1020.0
SOLOMONS ISLAND  0400   52 59   40/  5/  7   N/A
BISHOPS HEAD MD  0400   52 58   30/  6/  9 1018.5
PINEY POINT MD   0400           60/  5/  7   N/A
POTOMAC MD       0500   53 58   40/  8/ 10 1018.4R   0
CAMBRIDGE MD     0400   52 60   50/  9/ 10 1018.6
LEWISETTA VA     0400   54 60   50/  5/  7 1019.0
RAPPAHANNOCK LGT 0400           20/ 14/ 15 1019.1R
STINGRAY PT      0500   54 60   30/ 12/ 12 1019.3R   2/ 3
YORK RVR RNG VA  0400   56      30/ 13/ 15 1017.6
YORKTOWN VA      0400   56 62   10/  8/ 10 1018.0
JAMESTOWN VA     0500   55 66   10/  4/  8   N/A     0
DOMINION TERM VA 0400   56      20/  4/  7 1018.2
KIPTOPEKE VA     0400      59   30/  5/ 10   N/A
CHES BAY BRIDGE  0400   54 60   30/ 12/ 15 1017.7
CAPE HENRY VA    0400   53      40/ 14/ 16   N/A
CHESAPEAKE LGHT  0400   52      30/ 15/ 15 1018.3R
WILLOUBY STN VA  0400   55      40/ 10/ 11 1019.0
CAPE HENRY BUOY  0412      56                N/A     5/ 8   2/11
CAPE CHARLES BUO 0426      56                N/A     5/ 8   3/ 8
OFFSHORE WE BUOY 0421      53                N/A     5/ 8   5/ 8
64NM E OF VA BCH 0450   53 53  350/ 14/ 16 1016.6R   6/ 9   5/ 9
DUCK PIER NC     0400   54 66   20/ 12/ 16 1017.0
44100 DUCK FRF   0424      57                N/A     5/ 9   2/11
44056 DUCK FRF   0411      58                N/A     4/ 9   2/11
OREGON INLET NC  0400   55 63  350/ 11/ 14 1017.2
HATTERAS NC      0400   59 71  360/ 13/ 16 1016.2
DIAMOND SHLS NC  0450   59 75   20/ 14/ 17 1016.7R   4/ 5   2/ 9
CAPE LOOKOUT NC  0500   65      80/  8/  8 1016.0R
$$



USA.gov is the U.S. government's official web portal to all federal, state and local government web resources and services.